DLH773 VTBS-EDDF

Flight info

Callsign DLH773
Flight time N/A
Altitude 30000
Route NUNLI1E NUNLI L507 SUMSU/N0498F300 L507 CEA R460 LKN R594 DPN G333 LUN/N0501F320 G333 MERUN L750 RANAH B449 MAMED B450 BIBIM A909 TUGTA B701 LARGI/N0486F340 N701 LUSAL M11 REBLO UM11 CRM UL746 ODERO L746 LUGEB DCT PEXAL DCT TIXIP/N0479F360 DCT TEGRI DCT ARSIN DCT SITNI DCT SUBEN DCT AKINI T161 DEBHI DEBHI1D
Aircraft A346/H-SDE2E3FGHIJ3J4J5M1RWXY/LB1D1

Departure

Time 2026-05-07 19:59
Airport Suvarnabhumi Airport (VTBS)

Arrival

Time N/A
Airport Frankfurt Main Airport (EDDF)
Time Latitude Longitude Altitude Speed Heading
2026-05-07 18:29 13.68140 100.74789 17 ft 0 kts 13°
2026-05-07 19:43 13.68139 100.74788 17 ft 1 kts 13°
2026-05-07 19:44 13.68115 100.74782 18 ft 4 kts 13°
2026-05-07 19:44 13.68089 100.74776 22 ft 2 kts 14°
2026-05-07 19:44 13.68068 100.74773 21 ft 4 kts 353°
2026-05-07 19:44 13.68051 100.74779 22 ft 4 kts 315°
2026-05-07 19:45 13.68041 100.74798 18 ft 4 kts 286°
2026-05-07 19:45 13.68034 100.74825 17 ft 3 kts 285°
2026-05-07 19:45 13.68033 100.74828 18 ft 0 kts 286°
2026-05-07 19:49 13.68035 100.74820 17 ft 5 kts 286°
2026-05-07 19:49 13.68047 100.74776 22 ft 7 kts 285°
2026-05-07 19:49 13.68061 100.74722 19 ft 8 kts 285°
2026-05-07 19:49 13.68078 100.74657 17 ft 14 kts 284°
2026-05-07 19:50 13.68105 100.74546 17 ft 16 kts 284°
2026-05-07 19:50 13.68132 100.74435 17 ft 16 kts 283°
2026-05-07 19:50 13.68157 100.74326 18 ft 16 kts 283°
2026-05-07 19:50 13.68183 100.74217 17 ft 16 kts 284°
2026-05-07 19:51 13.68210 100.74109 17 ft 15 kts 289°
2026-05-07 19:51 13.68291 100.74071 18 ft 14 kts
2026-05-07 19:51 13.68384 100.74092 17 ft 14 kts 14°
2026-05-07 19:51 13.68479 100.74116 17 ft 14 kts 14°
2026-05-07 19:52 13.68577 100.74140 17 ft 14 kts 14°
2026-05-07 19:52 13.68675 100.74166 17 ft 15 kts 14°
2026-05-07 19:52 13.68776 100.74191 17 ft 15 kts 14°
2026-05-07 19:52 13.68876 100.74216 17 ft 15 kts 14°
2026-05-07 19:53 13.68980 100.74246 17 ft 16 kts 15°
2026-05-07 19:53 13.69090 100.74276 16 ft 16 kts 15°
2026-05-07 19:53 13.69196 100.74306 16 ft 16 kts 15°
2026-05-07 19:53 13.69305 100.74334 16 ft 16 kts 14°
2026-05-07 19:54 13.69412 100.74362 17 ft 15 kts 14°
2026-05-07 19:54 13.69482 100.74353 16 ft 10 kts 317°
2026-05-07 19:54 13.69531 100.74296 16 ft 11 kts 340°
2026-05-07 19:54 13.69609 100.74302 16 ft 12 kts 15°
2026-05-07 19:55 13.69691 100.74327 16 ft 13 kts 17°
2026-05-07 19:55 13.69804 100.74358 15 ft 18 kts 14°
2026-05-07 19:55 13.69921 100.74389 16 ft 17 kts 14°
2026-05-07 19:55 13.70033 100.74419 17 ft 16 kts 15°
2026-05-07 19:56 13.70141 100.74450 17 ft 16 kts 15°
2026-05-07 19:56 13.70248 100.74480 16 ft 11 kts 14°
2026-05-07 19:56 13.70301 100.74485 17 ft 4 kts 349°
2026-05-07 19:56 13.70324 100.74465 16 ft 7 kts 298°
2026-05-07 19:57 13.70340 100.74419 16 ft 7 kts 287°
2026-05-07 19:57 13.70352 100.74370 17 ft 10 kts 283°
2026-05-07 19:57 13.70342 100.74316 17 ft 7 kts 216°
2026-05-07 19:57 13.70305 100.74304 18 ft 0 kts 195°
2026-05-07 19:58 13.70304 100.74304 18 ft 0 kts 193°
2026-05-07 19:58 13.70278 100.74298 17 ft 22 kts 194°
2026-05-07 19:58 13.69907 100.74200 16 ft 87 kts 194°
2026-05-07 19:59 13.69128 100.73995 16 ft 142 kts 194°
2026-05-07 19:59 13.68008 100.73701 17 ft 188 kts 194°
2026-05-07 19:59 13.66684 100.73340 366 ft 198 kts 195°
2026-05-07 19:59 13.65363 100.72906 907 ft 200 kts 198°
2026-05-07 20:00 13.64033 100.72464 1535 ft 201 kts 196°
2026-05-07 20:00 13.62713 100.72054 2174 ft 201 kts 197°
2026-05-07 20:00 13.61372 100.71651 2591 ft 201 kts 196°
2026-05-07 20:00 13.60020 100.71265 2960 ft 202 kts 195°
2026-05-07 20:01 13.58660 100.70889 3318 ft 203 kts 194°
2026-05-07 20:01 13.57282 100.70533 3645 ft 206 kts 193°
2026-05-07 20:01 13.55874 100.70180 3950 ft 209 kts 194°
2026-05-07 20:01 13.54462 100.69778 4284 ft 212 kts 199°
2026-05-07 20:02 13.53223 100.68962 4555 ft 216 kts 232°
2026-05-07 20:02 13.52670 100.67534 4816 ft 220 kts 269°
2026-05-07 20:02 13.52939 100.65984 5161 ft 220 kts 287°
2026-05-07 20:02 13.53440 100.64495 5548 ft 219 kts 290°
2026-05-07 20:03 13.53796 100.63522 5768 ft 221 kts 291°
2026-05-07 20:03 13.54349 100.62024 6059 ft 226 kts 290°
2026-05-07 20:03 13.55045 100.59976 6458 ft 231 kts 289°
2026-05-07 20:03 13.55559 100.58399 6786 ft 233 kts 292°
2026-05-07 20:04 13.56109 100.57427 6948 ft 236 kts 315°
2026-05-07 20:04 13.57468 100.56543 7171 ft 238 kts 348°
2026-05-07 20:04 13.59108 100.56523 7438 ft 239 kts 11°
2026-05-07 20:04 13.60764 100.56831 7706 ft 245 kts 11°
2026-05-07 20:05 13.62458 100.57131 8009 ft 249 kts 11°
2026-05-07 20:05 13.64196 100.57350 8267 ft 256 kts
2026-05-07 20:05 13.66013 100.57442 8432 ft 267 kts
2026-05-07 20:05 13.67911 100.57510 8614 ft 278 kts
2026-05-07 20:06 13.69898 100.57562 8821 ft 289 kts
2026-05-07 20:06 13.71944 100.57597 9029 ft 299 kts
2026-05-07 20:06 13.74059 100.57639 9225 ft 309 kts
2026-05-07 20:06 13.76241 100.57676 9539 ft 316 kts 359°
2026-05-07 20:07 13.78414 100.57259 9906 ft 321 kts 340°
2026-05-07 20:07 13.80403 100.56213 10301 ft 324 kts 329°
2026-05-07 20:07 13.82349 100.54974 10481 ft 334 kts 328°
2026-05-07 20:07 13.84350 100.53681 10672 ft 344 kts 328°
2026-05-07 20:08 13.86411 100.52363 10837 ft 354 kts 329°
2026-05-07 20:08 13.88542 100.51012 11021 ft 364 kts 329°
2026-05-07 20:08 13.90733 100.49631 11196 ft 374 kts 329°
2026-05-07 20:08 13.93014 100.48279 11384 ft 383 kts 333°
2026-05-07 20:09 13.95464 100.47122 11572 ft 392 kts 339°
2026-05-07 20:09 13.98017 100.46206 11904 ft 395 kts 343°
2026-05-07 20:09 14.00644 100.45367 12340 ft 397 kts 343°
2026-05-07 20:10 14.05961 100.43701 13145 ft 402 kts 343°
2026-05-07 20:10 14.08645 100.42856 13551 ft 405 kts 343°
2026-05-07 20:10 14.11353 100.42000 13901 ft 408 kts 343°
2026-05-07 20:10 14.14074 100.41138 14242 ft 410 kts 343°
2026-05-07 20:11 14.16810 100.40271 14601 ft 412 kts 343°
2026-05-07 20:11 14.19565 100.39396 14952 ft 415 kts 343°
2026-05-07 20:11 14.22299 100.38528 15288 ft 417 kts 343°
2026-05-07 20:11 14.25080 100.37645 15642 ft 419 kts 343°
2026-05-07 20:12 14.27874 100.36756 15959 ft 421 kts 343°
2026-05-07 20:12 14.30694 100.35859 16294 ft 424 kts 343°
2026-05-07 20:12 14.33524 100.34960 16622 ft 426 kts 343°
2026-05-07 20:12 14.36366 100.34058 16938 ft 428 kts 343°
2026-05-07 20:13 14.39223 100.33149 17225 ft 431 kts 343°
2026-05-07 20:13 14.42104 100.32231 17540 ft 433 kts 342°
2026-05-07 20:13 14.44842 100.30923 17763 ft 438 kts 325°
2026-05-07 20:13 14.47053 100.28753 18045 ft 439 kts 306°
2026-05-07 20:14 14.48536 100.25998 18333 ft 439 kts 293°
2026-05-07 20:14 14.49755 100.23097 18613 ft 441 kts 292°
2026-05-07 20:14 14.50974 100.20173 18841 ft 444 kts 293°
2026-05-07 20:14 14.52191 100.17276 19084 ft 446 kts 293°
2026-05-07 20:15 14.53436 100.14332 19341 ft 448 kts 293°
2026-05-07 20:15 14.54689 100.11381 19589 ft 449 kts 293°
2026-05-07 20:15 14.55953 100.08417 19826 ft 451 kts 293°
2026-05-07 20:15 14.57226 100.05432 20076 ft 453 kts 293°
2026-05-07 20:16 14.58501 100.02448 20324 ft 455 kts 293°
2026-05-07 20:16 14.59780 99.99454 20569 ft 457 kts 293°
2026-05-07 20:16 14.61064 99.96445 20805 ft 458 kts 294°
2026-05-07 20:16 14.62355 99.93421 21047 ft 460 kts 294°
2026-05-07 20:17 14.63649 99.90389 21275 ft 462 kts 294°
2026-05-07 20:17 14.64949 99.87343 21504 ft 463 kts 294°
2026-05-07 20:17 14.66252 99.84286 21728 ft 465 kts 294°
2026-05-07 20:17 14.67565 99.81208 21955 ft 467 kts 294°
2026-05-07 20:18 14.68879 99.78127 22168 ft 469 kts 294°
2026-05-07 20:18 14.70194 99.75037 22382 ft 470 kts 294°
2026-05-07 20:18 14.71520 99.71924 22584 ft 472 kts 294°
2026-05-07 20:18 14.72845 99.68810 22792 ft 474 kts 294°
2026-05-07 20:19 14.74175 99.65684 23011 ft 475 kts 294°
2026-05-07 20:19 14.75489 99.62595 23222 ft 476 kts 294°
2026-05-07 20:19 14.76825 99.59452 23425 ft 478 kts 294°
2026-05-07 20:19 14.78167 99.56295 23586 ft 479 kts 294°
2026-05-07 20:20 14.79508 99.53137 23751 ft 480 kts 294°
2026-05-07 20:20 14.80853 99.49970 23930 ft 481 kts 294°
2026-05-07 20:20 14.82202 99.46790 24102 ft 482 kts 294°
2026-05-07 20:20 14.83552 99.43607 24281 ft 483 kts 294°
2026-05-07 20:21 14.85020 99.40478 24431 ft 484 kts 298°
2026-05-07 20:21 14.86738 99.37480 24632 ft 484 kts 303°
2026-05-07 20:21 14.88698 99.34642 24788 ft 484 kts 308°
2026-05-07 20:21 14.90780 99.31954 24957 ft 485 kts 309°
2026-05-07 20:22 14.92924 99.29247 25123 ft 486 kts 310°
2026-05-07 20:22 14.95073 99.26542 25287 ft 487 kts 310°
2026-05-07 20:22 14.97224 99.23830 25444 ft 488 kts 310°
2026-05-07 20:22 14.99374 99.21113 25611 ft 489 kts 310°
2026-05-07 20:23 15.01528 99.18385 25770 ft 489 kts 310°
2026-05-07 20:23 15.03681 99.15654 25936 ft 490 kts 310°
2026-05-07 20:23 15.05840 99.12914 26084 ft 491 kts 310°
2026-05-07 20:23 15.08002 99.10168 26248 ft 492 kts 310°
2026-05-07 20:24 15.10164 99.07419 26399 ft 492 kts 310°
2026-05-07 20:24 15.12330 99.04666 26579 ft 492 kts 310°
2026-05-07 20:24 15.14498 99.01907 26731 ft 493 kts 310°
2026-05-07 20:24 15.16664 98.99152 26874 ft 494 kts 310°
2026-05-07 20:25 15.18811 98.96419 27022 ft 494 kts 310°
2026-05-07 20:25 15.20983 98.93653 27165 ft 495 kts 310°
2026-05-07 20:25 15.23159 98.90881 27340 ft 495 kts 310°
2026-05-07 20:25 15.25333 98.88111 27549 ft 494 kts 310°
2026-05-07 20:26 15.27500 98.85347 27768 ft 493 kts 310°
2026-05-07 20:26 15.29662 98.82591 27986 ft 492 kts 310°
2026-05-07 20:26 15.31818 98.79840 28179 ft 491 kts 310°
2026-05-07 20:26 15.33977 98.77086 28334 ft 492 kts 310°
2026-05-07 20:27 15.36138 98.74328 28464 ft 492 kts 310°
2026-05-07 20:27 15.38300 98.71569 28611 ft 493 kts 310°
2026-05-07 20:27 15.40461 98.68810 28773 ft 493 kts 310°
2026-05-07 20:27 15.42624 98.66047 28933 ft 492 kts 310°
2026-05-07 20:28 15.44786 98.63290 29063 ft 492 kts 311°
2026-05-07 20:28 15.47039 98.60616 29180 ft 492 kts 314°
2026-05-07 20:28 15.49426 98.58062 29314 ft 492 kts 316°
2026-05-07 20:28 15.51936 98.55643 29434 ft 492 kts 320°
2026-05-07 20:29 15.54492 98.53341 29559 ft 493 kts 320°
2026-05-07 20:29 15.57092 98.51023 29702 ft 493 kts 320°
2026-05-07 20:29 15.59696 98.48707 29812 ft 493 kts 320°
2026-05-07 20:30 15.64915 98.44061 29870 ft 493 kts 320°
2026-05-07 20:30 15.70133 98.39406 29875 ft 493 kts 320°
2026-05-07 20:31 15.75355 98.34745 29879 ft 493 kts 320°
2026-05-07 20:31 15.80578 98.30086 29856 ft 494 kts 320°
2026-05-07 20:32 15.85765 98.25452 29858 ft 494 kts 320°
2026-05-07 20:32 15.90974 98.20790 29857 ft 494 kts 320°
2026-05-07 20:33 15.96190 98.16115 29849 ft 494 kts 320°
2026-05-07 20:33 16.01396 98.11448 29850 ft 494 kts 320°
2026-05-07 20:34 16.06609 98.06770 29850 ft 494 kts 320°
2026-05-07 20:34 16.11818 98.02093 29849 ft 494 kts 320°
2026-05-07 20:35 16.16989 97.97447 29847 ft 494 kts 320°
2026-05-07 20:35 16.22217 97.92752 29847 ft 497 kts 320°
2026-05-07 20:36 16.27450 97.88038 29847 ft 497 kts 320°
2026-05-07 20:36 16.32673 97.83317 29845 ft 497 kts 319°
2026-05-07 20:37 16.37597 97.78240 29846 ft 497 kts 313°
2026-05-07 20:37 16.42034 97.72660 29845 ft 498 kts 308°
2026-05-07 20:38 16.46268 97.67010 29844 ft 498 kts 308°
2026-05-07 20:38 16.50547 97.61290 29843 ft 498 kts 308°
2026-05-07 20:39 16.54809 97.55595 29844 ft 497 kts 308°
2026-05-07 20:39 16.59073 97.49908 29842 ft 493 kts 308°
2026-05-07 20:40 16.63302 97.44251 29847 ft 493 kts 308°
2026-05-07 20:40 16.67541 97.38575 29845 ft 493 kts 308°
2026-05-07 20:41 16.71763 97.32922 29840 ft 494 kts 308°
2026-05-07 20:41 16.75983 97.27268 29840 ft 493 kts 308°
2026-05-07 20:42 16.80169 97.21652 29840 ft 493 kts 308°
2026-05-07 20:42 16.84391 97.15985 29840 ft 493 kts 308°
2026-05-07 20:43 16.88624 97.10298 29838 ft 494 kts 308°
2026-05-07 20:43 16.92846 97.04623 29844 ft 494 kts 308°
2026-05-07 20:44 16.97060 96.98959 29839 ft 493 kts 307°
2026-05-07 20:44 17.01244 96.93321 29833 ft 493 kts 307°
2026-05-07 20:45 17.05452 96.87647 29832 ft 492 kts 307°
2026-05-07 20:45 17.09659 96.81975 29827 ft 493 kts 307°
2026-05-07 20:46 17.13875 96.76283 29829 ft 493 kts 307°
2026-05-07 20:46 17.18079 96.70602 29831 ft 493 kts 307°
2026-05-07 20:47 17.22251 96.64961 29830 ft 493 kts 307°
2026-05-07 20:47 17.26459 96.59265 29830 ft 493 kts 307°
2026-05-07 20:48 17.30660 96.53581 29833 ft 491 kts 306°
2026-05-07 20:48 17.34804 96.47906 29828 ft 488 kts 306°
2026-05-07 20:49 17.38913 96.42206 29824 ft 488 kts 305°
2026-05-07 20:49 17.43008 96.36517 29825 ft 488 kts 305°
2026-05-07 20:50 17.47103 96.30831 29824 ft 488 kts 305°
2026-05-07 20:50 17.51181 96.25168 29824 ft 488 kts 305°
2026-05-07 20:51 17.55274 96.19480 29827 ft 488 kts 305°
2026-05-07 20:51 17.58680 96.14744 29826 ft 488 kts 305°
2026-05-07 20:52 17.62776 96.09046 29827 ft 488 kts 305°
2026-05-07 20:52 17.66865 96.03360 29834 ft 486 kts 304°
2026-05-07 20:53 17.70933 95.97690 29825 ft 485 kts 304°
2026-05-07 20:53 17.74964 95.92062 29822 ft 485 kts 304°
2026-05-07 20:54 17.79028 95.86386 29821 ft 485 kts 304°
2026-05-07 20:54 17.83081 95.80721 29822 ft 485 kts 304°
2026-05-07 20:55 17.87135 95.75051 29819 ft 485 kts 304°
2026-05-07 20:55 17.91194 95.69373 29820 ft 485 kts 304°
2026-05-07 20:56 17.95256 95.63683 29822 ft 486 kts 304°
2026-05-07 20:56 17.99288 95.58027 29819 ft 486 kts 304°
2026-05-07 20:57 18.03349 95.52332 29818 ft 486 kts 304°
2026-05-07 20:57 18.07406 95.46632 29816 ft 486 kts 304°
2026-05-07 20:58 18.11457 95.40935 29816 ft 486 kts 304°
2026-05-07 20:58 18.15513 95.35228 29816 ft 486 kts 304°
2026-05-07 20:59 18.19539 95.29561 29824 ft 487 kts 303°
2026-05-07 20:59 18.23595 95.23844 29826 ft 487 kts 303°
2026-05-07 21:00 18.27653 95.18119 29824 ft 487 kts 303°
2026-05-07 21:00 18.31669 95.12374 29844 ft 486 kts 302°
2026-05-07 21:01 18.35521 95.06506 29844 ft 486 kts 301°
2026-05-07 21:01 18.39334 95.00675 29857 ft 486 kts 301°
2026-05-07 21:02 18.43181 94.94818 29861 ft 486 kts 301°
2026-05-07 21:02 18.47062 94.88917 29858 ft 486 kts 301°
2026-05-07 21:03 18.50893 94.83085 29869 ft 487 kts 301°
2026-05-07 21:03 18.54750 94.77209 29866 ft 486 kts 301°
2026-05-07 21:04 18.58608 94.71343 29867 ft 487 kts 302°
2026-05-07 21:04 18.62583 94.65549 29868 ft 487 kts 303°
2026-05-07 21:05 18.66579 94.59773 29873 ft 487 kts 303°
2026-05-07 21:05 18.70573 94.53978 29858 ft 489 kts 303°
2026-05-07 21:06 18.74572 94.48162 29865 ft 490 kts 303°
2026-05-07 21:06 18.78571 94.42339 29867 ft 489 kts 303°
2026-05-07 21:07 18.82568 94.36510 29856 ft 489 kts 303°
2026-05-07 21:07 18.86561 94.30684 29855 ft 489 kts 302°
2026-05-07 21:08 18.90555 94.24847 29844 ft 489 kts 302°
2026-05-07 21:08 18.94518 94.19052 29857 ft 489 kts 303°
2026-05-07 21:09 18.98509 94.13207 29852 ft 490 kts 302°
2026-05-07 21:09 19.02501 94.07360 29840 ft 490 kts 302°
2026-05-07 21:10 19.06492 94.01506 29838 ft 490 kts 302°
2026-05-07 21:10 19.10456 93.95689 29843 ft 489 kts 302°
2026-05-07 21:11 19.14434 93.89843 29842 ft 489 kts 302°
2026-05-07 21:11 19.20402 93.81063 29846 ft 489 kts 302°
2026-05-07 21:12 19.24374 93.75215 29842 ft 488 kts 302°
2026-05-07 21:12 19.28310 93.69411 29840 ft 488 kts 302°
2026-05-07 21:13 19.32275 93.63558 29837 ft 488 kts 302°
2026-05-07 21:13 19.36234 93.57709 29837 ft 488 kts 302°
2026-05-07 21:14 19.40194 93.51856 29841 ft 488 kts 302°
2026-05-07 21:14 19.44149 93.46004 29848 ft 487 kts 302°
2026-05-07 21:15 19.48101 93.40150 29844 ft 487 kts 302°
2026-05-07 21:15 19.52043 93.34301 29842 ft 487 kts 302°
2026-05-07 21:16 19.55983 93.28452 29841 ft 487 kts 302°
2026-05-07 21:16 19.59929 93.22589 29841 ft 487 kts 302°
2026-05-07 21:17 19.63843 93.16767 29839 ft 487 kts 302°
2026-05-07 21:17 19.67780 93.10907 29839 ft 487 kts 302°
2026-05-07 21:18 19.71714 93.05047 29847 ft 487 kts 302°
2026-05-07 21:18 19.75642 92.99191 29838 ft 487 kts 301°
2026-05-07 21:19 19.79570 92.93328 29844 ft 486 kts 301°
2026-05-07 21:19 19.83484 92.87477 29840 ft 485 kts 301°
2026-05-07 21:20 19.87402 92.81615 29840 ft 485 kts 301°
2026-05-07 21:20 19.91311 92.75761 29840 ft 485 kts 301°
2026-05-07 21:21 19.95196 92.69937 29840 ft 485 kts 301°
2026-05-07 21:21 19.99102 92.64080 29838 ft 484 kts 301°
2026-05-07 21:22 20.02993 92.58238 29842 ft 483 kts 301°
2026-05-07 21:22 20.06882 92.52390 29838 ft 483 kts 301°
2026-05-07 21:23 20.10767 92.46542 29854 ft 483 kts 301°
2026-05-07 21:23 20.14622 92.40740 29848 ft 481 kts 301°
2026-05-07 21:24 20.18484 92.34915 29847 ft 480 kts 301°
2026-05-07 21:24 20.22339 92.29096 29846 ft 481 kts 301°
2026-05-07 21:25 20.26196 92.23271 29851 ft 479 kts 301°
2026-05-07 21:25 20.30041 92.17456 29856 ft 479 kts 300°
2026-05-07 21:26 20.33881 92.11643 29851 ft 479 kts 300°
2026-05-07 21:26 20.37697 92.05863 29853 ft 479 kts 300°
2026-05-07 21:27 20.41534 92.00042 29851 ft 479 kts 300°
2026-05-07 21:27 20.45336 91.94199 29853 ft 479 kts 300°
2026-05-07 21:28 20.49122 91.88346 29864 ft 477 kts 300°
2026-05-07 21:28 20.52897 91.82501 29857 ft 477 kts 300°
2026-05-07 21:29 20.56665 91.76664 29855 ft 477 kts 300°
2026-05-07 21:29 20.60432 91.70825 29858 ft 477 kts 300°
2026-05-07 21:30 20.64173 91.65022 29859 ft 477 kts 300°
2026-05-07 21:30 20.67954 91.59148 29934 ft 481 kts 300°
2026-05-07 21:31 20.69850 91.56203 30074 ft 481 kts 300°
2026-05-07 21:31 20.71745 91.53258 30245 ft 480 kts 300°
2026-05-07 21:31 20.73638 91.50317 30425 ft 479 kts 299°
2026-05-07 21:31 20.75524 91.47384 30586 ft 478 kts 299°
2026-05-07 21:32 20.77405 91.44456 30745 ft 477 kts 299°
2026-05-07 21:32 20.79288 91.41524 30904 ft 477 kts 299°
2026-05-07 21:32 20.81167 91.38600 31086 ft 476 kts 299°
2026-05-07 21:32 20.83037 91.35687 31266 ft 474 kts 299°
2026-05-07 21:33 20.84901 91.32779 31449 ft 473 kts 299°
2026-05-07 21:33 20.86763 91.29873 31620 ft 472 kts 299°
2026-05-07 21:33 20.88615 91.26979 31789 ft 471 kts 299°
2026-05-07 21:33 20.90466 91.24087 31860 ft 471 kts 299°
2026-05-07 21:34 20.94143 91.18337 31862 ft 470 kts 299°
2026-05-07 21:34 20.97838 91.12554 31867 ft 470 kts 299°
2026-05-07 21:35 21.01525 91.06778 31871 ft 470 kts 299°
2026-05-07 21:35 21.05218 91.00985 31869 ft 470 kts 299°
2026-05-07 21:36 21.08907 90.95192 31868 ft 470 kts 299°
2026-05-07 21:36 21.12590 90.89403 31869 ft 470 kts 299°
2026-05-07 21:37 21.16276 90.83608 31878 ft 469 kts 298°
2026-05-07 21:37 21.19929 90.77853 31873 ft 469 kts 298°
2026-05-07 21:38 21.23606 90.72054 31876 ft 470 kts 298°
2026-05-07 21:38 21.27285 90.66247 31873 ft 470 kts 298°
2026-05-07 21:39 21.30959 90.60441 31872 ft 470 kts 298°
2026-05-07 21:39 21.34638 90.54622 31872 ft 470 kts 298°
2026-05-07 21:40 21.38310 90.48815 31871 ft 470 kts 298°
2026-05-07 21:40 21.41362 90.43984 31875 ft 470 kts 298°
2026-05-07 21:41 21.45037 90.38160 31879 ft 470 kts 298°
2026-05-07 21:41 21.48705 90.32347 31889 ft 468 kts 298°
2026-05-07 21:42 21.52359 90.26545 31878 ft 467 kts 298°
2026-05-07 21:42 21.56001 90.20753 31878 ft 467 kts 298°
2026-05-07 21:43 21.59643 90.14956 31880 ft 467 kts 298°
2026-05-07 21:43 21.63260 90.09195 31877 ft 467 kts 298°
2026-05-07 21:44 21.66900 90.03391 31876 ft 467 kts 298°
2026-05-07 21:44 21.70540 89.97582 31885 ft 467 kts 298°
2026-05-07 21:45 21.74171 89.91781 31879 ft 467 kts 298°
2026-05-07 21:45 21.77800 89.85975 31880 ft 467 kts 298°
2026-05-07 21:46 21.81430 89.80163 31900 ft 466 kts 297°
2026-05-07 21:46 21.85045 89.74372 31886 ft 465 kts 297°
2026-05-07 21:47 21.88634 89.68611 31884 ft 465 kts 297°
2026-05-07 21:47 21.92240 89.62817 31878 ft 465 kts 297°
2026-05-07 21:48 21.95846 89.57016 31883 ft 465 kts 297°
2026-05-07 21:48 21.99453 89.51210 31880 ft 465 kts 297°
2026-05-07 21:49 22.03036 89.45435 31880 ft 465 kts 297°
2026-05-07 21:49 22.06635 89.39629 31886 ft 465 kts 297°
2026-05-07 21:50 22.10233 89.33818 31884 ft 465 kts 297°
2026-05-07 21:50 22.13826 89.28008 31885 ft 465 kts 297°
2026-05-07 21:51 22.17403 89.22219 31895 ft 465 kts 297°
2026-05-07 21:51 22.20989 89.16411 31880 ft 464 kts 297°
2026-05-07 21:52 22.24565 89.10608 31881 ft 464 kts 297°
2026-05-07 21:52 22.28140 89.04802 31894 ft 464 kts 297°
2026-05-07 21:53 22.31772 88.99075 31879 ft 465 kts 299°
2026-05-07 21:53 22.35553 88.93376 31892 ft 465 kts 299°
2026-05-07 21:54 22.39336 88.87677 31876 ft 465 kts 299°
2026-05-07 21:54 22.43109 88.81982 31884 ft 465 kts 299°
2026-05-07 21:55 22.46859 88.76318 31896 ft 465 kts 299°
2026-05-07 21:55 22.50622 88.70625 31882 ft 465 kts 299°
2026-05-07 21:56 22.54389 88.64916 31877 ft 465 kts 299°
2026-05-07 21:56 22.58152 88.59209 31873 ft 465 kts 299°
2026-05-07 21:57 22.61910 88.53505 31870 ft 465 kts 299°
2026-05-07 21:57 22.65666 88.47796 31869 ft 465 kts 299°
2026-05-07 21:58 22.69255 88.41984 31871 ft 462 kts 296°
2026-05-07 21:58 22.72636 88.36101 31871 ft 462 kts 295°
2026-05-07 21:59 22.76030 88.30176 31877 ft 462 kts 295°
2026-05-07 21:59 22.79424 88.24251 31891 ft 462 kts 295°
2026-05-07 22:00 22.82811 88.18327 31891 ft 461 kts 295°
2026-05-07 22:00 22.86193 88.12402 31899 ft 461 kts 295°
2026-05-07 22:01 22.89572 88.06478 31908 ft 460 kts 295°
2026-05-07 22:01 22.92925 88.00593 31904 ft 460 kts 295°
2026-05-07 22:02 22.96294 87.94673 31903 ft 460 kts 295°
2026-05-07 22:02 22.99657 87.88758 31899 ft 460 kts 295°
2026-05-07 22:03 23.03022 87.82832 31902 ft 460 kts 295°
2026-05-07 22:03 23.06381 87.76910 31902 ft 460 kts 295°
2026-05-07 22:04 23.09719 87.71020 31925 ft 459 kts 295°
2026-05-07 22:04 23.13063 87.65117 31913 ft 457 kts 294°
2026-05-07 22:05 23.16397 87.59214 31905 ft 457 kts 294°
2026-05-07 22:05 23.19729 87.53311 31909 ft 457 kts 294°
2026-05-07 22:06 23.23038 87.47442 31910 ft 457 kts 294°
2026-05-07 22:06 23.26359 87.41545 31911 ft 457 kts 294°
2026-05-07 22:07 23.29684 87.35634 31912 ft 457 kts 294°
2026-05-07 22:07 23.33005 87.29723 31909 ft 457 kts 294°
2026-05-07 22:08 23.36326 87.23807 31925 ft 457 kts 294°
2026-05-07 22:08 23.39618 87.17935 31926 ft 457 kts 294°
2026-05-07 22:09 23.42931 87.12024 31929 ft 455 kts 294°
2026-05-07 22:09 23.46229 87.06123 31928 ft 455 kts 294°
2026-05-07 22:10 23.49531 87.00215 31925 ft 455 kts 294°
2026-05-07 22:10 23.52809 86.94360 31936 ft 455 kts 294°
2026-05-07 22:11 23.56112 86.88453 31930 ft 455 kts 294°
2026-05-07 22:11 23.59407 86.82553 31930 ft 455 kts 294°
2026-05-07 22:12 23.62698 86.76652 31933 ft 454 kts 294°
2026-05-07 22:12 23.65980 86.70760 31931 ft 454 kts 294°
2026-05-07 22:13 23.69268 86.64848 31932 ft 454 kts 294°
2026-05-07 22:13 23.72534 86.58975 31959 ft 453 kts 294°
2026-05-07 22:14 23.75800 86.53088 31945 ft 452 kts 294°
2026-05-07 22:14 23.79062 86.47202 31951 ft 452 kts 294°
2026-05-07 22:15 23.82454 86.41379 31944 ft 456 kts 296°
2026-05-07 22:15 23.86061 86.35665 31943 ft 456 kts 297°
2026-05-07 22:16 23.89647 86.29994 31953 ft 456 kts 297°
2026-05-07 22:16 23.93255 86.24281 31955 ft 456 kts 297°
2026-05-07 22:17 23.96863 86.18562 31954 ft 456 kts 296°
2026-05-07 22:17 24.00473 86.12832 31959 ft 456 kts 297°
2026-05-07 22:18 24.05863 86.04259 31967 ft 455 kts 297°
2026-05-07 22:19 24.09451 85.98548 31961 ft 455 kts 297°
2026-05-07 22:19 24.13038 85.92831 31956 ft 455 kts 297°
2026-05-07 22:20 24.16625 85.87107 31952 ft 455 kts 297°
2026-05-07 22:20 24.20186 85.81419 31953 ft 455 kts 297°
2026-05-07 22:21 24.23767 85.75691 31952 ft 455 kts 297°
2026-05-07 22:21 24.27349 85.69954 31947 ft 455 kts 297°
2026-05-07 22:22 24.30928 85.64216 31947 ft 455 kts 297°
2026-05-07 22:22 24.34499 85.58484 31944 ft 454 kts 297°
2026-05-07 22:23 24.38045 85.52788 31937 ft 454 kts 297°
2026-05-07 22:23 24.41606 85.47059 31933 ft 454 kts 296°
2026-05-07 22:24 24.45166 85.41321 31926 ft 454 kts 297°
2026-05-07 22:24 24.48727 85.35573 31910 ft 455 kts 297°
2026-05-07 22:25 24.52289 85.29829 31922 ft 455 kts 297°
2026-05-07 22:25 24.55855 85.24067 31907 ft 455 kts 297°
2026-05-07 22:26 24.59412 85.18311 31906 ft 455 kts 297°
2026-05-07 22:26 24.62965 85.12552 31922 ft 455 kts 297°
2026-05-07 22:27 24.65918 85.07755 31907 ft 455 kts 297°
2026-05-07 22:27 24.70051 85.01042 31903 ft 455 kts 297°
2026-05-07 22:28 24.72813 84.96096 31899 ft 451 kts 294°
2026-05-07 22:28 24.75613 84.89945 31897 ft 447 kts 289°
2026-05-07 22:29 24.77916 84.83649 31898 ft 445 kts 286°
2026-05-07 22:29 24.80152 84.77278 31894 ft 445 kts 286°
2026-05-07 22:30 24.82380 84.70902 31890 ft 445 kts 286°
2026-05-07 22:30 24.84601 84.64528 31893 ft 445 kts 286°
2026-05-07 22:31 24.86819 84.58156 31888 ft 445 kts 286°
2026-05-07 22:31 24.89035 84.51781 31883 ft 445 kts 286°
2026-05-07 22:32 24.91245 84.45412 31884 ft 445 kts 286°
2026-05-07 22:32 24.93451 84.39034 31889 ft 445 kts 287°
2026-05-07 22:33 24.95648 84.32683 31878 ft 445 kts 287°
2026-05-07 22:33 24.97852 84.26298 31881 ft 445 kts 287°
2026-05-07 22:34 25.00055 84.19907 31877 ft 445 kts 287°
2026-05-07 22:34 25.02254 84.13519 31877 ft 445 kts 287°
2026-05-07 22:35 25.04451 84.07125 31879 ft 445 kts 287°
2026-05-07 22:35 25.06643 84.00734 31880 ft 445 kts 287°
2026-05-07 22:36 25.08834 83.94337 31880 ft 445 kts 287°
2026-05-07 22:36 25.11019 83.87941 31886 ft 444 kts 287°
2026-05-07 22:37 25.13201 83.81549 31884 ft 444 kts 287°
2026-05-07 22:37 25.15366 83.75201 31872 ft 444 kts 287°
2026-05-07 22:38 25.17543 83.68803 31872 ft 444 kts 287°
2026-05-07 22:38 25.19714 83.62413 31872 ft 444 kts 287°
2026-05-07 22:39 25.21887 83.56006 31875 ft 444 kts 287°
2026-05-07 22:39 25.24054 83.49598 31873 ft 444 kts 287°
2026-05-07 22:40 25.26216 83.43207 31866 ft 443 kts 287°
2026-05-07 22:40 25.28375 83.36815 31866 ft 443 kts 287°
2026-05-07 22:41 25.30520 83.30451 31865 ft 443 kts 287°
2026-05-07 22:41 25.32677 83.24040 31866 ft 443 kts 287°
2026-05-07 22:42 25.34827 83.17637 31868 ft 443 kts 287°
2026-05-07 22:42 25.36969 83.11238 31865 ft 443 kts 287°
2026-05-07 22:43 25.39115 83.04833 31869 ft 443 kts 287°
2026-05-07 22:43 25.41242 82.98471 31869 ft 443 kts 287°
2026-05-07 22:44 25.43497 82.92098 31869 ft 445 kts 290°
2026-05-07 22:44 25.46254 82.85928 31869 ft 447 kts 295°
2026-05-07 22:45 25.49504 82.80066 31880 ft 451 kts 300°
2026-05-07 22:45 25.53205 82.74432 31872 ft 451 kts 303°
2026-05-07 22:46 25.56968 82.68857 31865 ft 451 kts 303°
2026-05-07 22:46 25.60731 82.63283 31867 ft 451 kts 303°
2026-05-07 22:47 25.64495 82.57702 31867 ft 451 kts 303°
2026-05-07 22:47 25.68252 82.52124 31866 ft 451 kts 303°
2026-05-07 22:48 25.71983 82.46579 31871 ft 451 kts 303°
2026-05-07 22:48 25.75736 82.40993 31898 ft 451 kts 303°
2026-05-07 22:49 25.79489 82.35399 31867 ft 451 kts 303°
2026-05-07 22:49 25.83248 82.29793 31874 ft 451 kts 303°
2026-05-07 22:50 25.87001 82.24190 31875 ft 451 kts 303°
2026-05-07 22:50 25.90753 82.18580 31875 ft 451 kts 303°
2026-05-07 22:51 25.94473 82.13011 31874 ft 451 kts 303°
2026-05-07 22:51 25.98219 82.07396 31874 ft 451 kts 303°
2026-05-07 22:52 26.01960 82.01783 31874 ft 451 kts 303°
2026-05-07 22:52 26.05696 81.96166 31872 ft 452 kts 303°
2026-05-07 22:53 26.09442 81.90532 31869 ft 453 kts 303°
2026-05-07 22:53 26.13195 81.84881 31873 ft 453 kts 303°
2026-05-07 22:54 26.16918 81.79268 31872 ft 453 kts 303°
2026-05-07 22:54 26.20663 81.73615 31872 ft 453 kts 303°
2026-05-07 22:55 26.24408 81.67951 31879 ft 453 kts 303°
2026-05-07 22:55 26.28148 81.62286 31864 ft 452 kts 303°
2026-05-07 22:56 26.31878 81.56634 31889 ft 452 kts 303°
2026-05-07 22:56 26.35587 81.51006 31874 ft 453 kts 303°
2026-05-07 22:57 26.39322 81.45333 31864 ft 453 kts 303°
2026-05-07 22:57 26.43055 81.39655 31868 ft 453 kts 303°
2026-05-07 22:58 26.46787 81.33971 31866 ft 453 kts 303°
2026-05-07 22:58 26.50520 81.28279 31864 ft 453 kts 303°
2026-05-07 22:59 26.54235 81.22602 31864 ft 451 kts 303°
2026-05-07 22:59 26.57945 81.16932 31870 ft 451 kts 303°
2026-05-07 23:00 26.61650 81.11254 31884 ft 452 kts 303°
2026-05-07 23:00 26.65366 81.05560 31875 ft 453 kts 303°
2026-05-07 23:01 26.69080 80.99862 31871 ft 453 kts 303°
2026-05-07 23:01 26.72771 80.94189 31869 ft 453 kts 303°
2026-05-07 23:02 26.76570 80.88553 31866 ft 452 kts 307°
2026-05-07 23:02 26.80642 80.83187 31868 ft 451 kts 308°
2026-05-07 23:03 26.84725 80.77848 31870 ft 451 kts 308°
2026-05-07 23:03 26.88812 80.72494 31885 ft 453 kts 308°
2026-05-07 23:04 26.92923 80.67105 31878 ft 455 kts 308°
2026-05-07 23:04 26.97035 80.61710 31875 ft 455 kts 308°
2026-05-07 23:05 27.01144 80.56310 31875 ft 455 kts 308°
2026-05-07 23:05 27.05246 80.50911 31868 ft 452 kts 308°
2026-05-07 23:06 27.09329 80.45532 31874 ft 451 kts 308°
2026-05-07 23:06 27.13408 80.40151 31876 ft 451 kts 308°
2026-05-07 23:07 27.17459 80.34795 31882 ft 454 kts 309°
2026-05-07 23:07 27.21560 80.29374 31880 ft 455 kts 309°
2026-05-07 23:08 27.25661 80.23946 31875 ft 455 kts 308°
2026-05-07 23:08 27.29760 80.18512 31873 ft 455 kts 308°
2026-05-07 23:09 27.33853 80.13077 31877 ft 453 kts 309°
2026-05-07 23:09 27.37932 80.07656 31878 ft 453 kts 309°
2026-05-07 23:10 27.41980 80.02269 31891 ft 453 kts 309°
2026-05-07 23:10 27.46063 79.96826 31883 ft 456 kts 309°
2026-05-07 23:11 27.50164 79.91356 31881 ft 456 kts 309°
2026-05-07 23:11 27.54255 79.85891 31880 ft 456 kts 309°
2026-05-07 23:12 27.58349 79.80415 31878 ft 456 kts 309°
2026-05-07 23:12 27.61741 79.75870 31876 ft 454 kts 309°
2026-05-07 23:13 27.66268 79.69364 31879 ft 453 kts 304°
2026-05-07 23:13 27.69642 79.63367 31884 ft 453 kts 299°
2026-05-07 23:14 27.72069 79.58092 31881 ft 455 kts 295°
2026-05-07 23:14 27.74580 79.51511 31868 ft 455 kts 292°
2026-05-07 23:15 27.77014 79.44892 31880 ft 455 kts 292°
2026-05-07 23:15 27.79437 79.38278 31868 ft 454 kts 292°
2026-05-07 23:16 27.81853 79.31673 31875 ft 453 kts 292°
2026-05-07 23:16 27.84246 79.25119 31872 ft 453 kts 292°
2026-05-07 23:17 27.86651 79.18521 31872 ft 453 kts 292°
2026-05-07 23:17 27.89054 79.11916 31869 ft 453 kts 292°
2026-05-07 23:18 27.91452 79.05314 31852 ft 453 kts 292°
2026-05-07 23:18 27.93839 78.98727 31867 ft 451 kts 292°
2026-05-07 23:19 27.96216 78.92161 31867 ft 450 kts 292°
2026-05-07 23:19 27.98579 78.85621 31870 ft 451 kts 292°
2026-05-07 23:20 28.00950 78.79049 31869 ft 450 kts 292°
2026-05-07 23:20 28.03321 78.72464 31869 ft 450 kts 292°
2026-05-07 23:21 28.05684 78.65887 31858 ft 450 kts 292°
2026-05-07 23:21 28.08043 78.59313 31865 ft 449 kts 292°
2026-05-07 23:22 28.10397 78.52741 31865 ft 449 kts 292°
2026-05-07 23:22 28.12733 78.46206 31866 ft 449 kts 292°
2026-05-07 23:23 28.15083 78.39621 31867 ft 449 kts 292°
2026-05-07 23:23 28.17426 78.33041 31877 ft 451 kts 292°
2026-05-07 23:24 28.19783 78.26412 31867 ft 453 kts 292°
2026-05-07 23:24 28.22140 78.19772 31867 ft 453 kts 292°
2026-05-07 23:25 28.24495 78.13127 31869 ft 453 kts 292°
2026-05-07 23:25 28.26843 78.06486 31865 ft 453 kts 292°
2026-05-07 23:26 28.29188 77.99841 31864 ft 453 kts 292°
2026-05-07 23:26 28.31517 77.93230 31850 ft 452 kts 292°
2026-05-07 23:27 28.35020 77.83263 31863 ft 452 kts 292°
2026-05-07 23:27 28.37347 77.76625 31865 ft 452 kts 292°
2026-05-07 23:28 28.39602 77.69958 31864 ft 452 kts 289°
2026-05-07 23:28 28.41560 77.63142 31867 ft 453 kts 289°
2026-05-07 23:29 28.43494 77.56313 31852 ft 453 kts 289°
2026-05-07 23:29 28.45413 77.49525 31856 ft 452 kts 289°
2026-05-07 23:30 28.47335 77.42715 31862 ft 452 kts 289°
2026-05-07 23:30 28.49256 77.35891 31860 ft 452 kts 289°
2026-05-07 23:31 28.51171 77.29073 31862 ft 452 kts 289°
2026-05-07 23:31 28.53084 77.22242 31842 ft 452 kts 289°
2026-05-07 23:32 28.54986 77.15435 31862 ft 450 kts 289°
2026-05-07 23:32 28.56720 77.08571 31867 ft 451 kts 285°
2026-05-07 23:33 28.57963 77.01614 31867 ft 451 kts 282°
2026-05-07 23:33 28.59126 76.94590 31868 ft 451 kts 282°
2026-05-07 23:34 28.60285 76.87547 31861 ft 451 kts 282°
2026-05-07 23:34 28.61434 76.80522 31850 ft 451 kts 283°
2026-05-07 23:35 28.62576 76.73532 31850 ft 451 kts 282°
2026-05-07 23:35 28.63718 76.66501 31851 ft 451 kts 282°
2026-05-07 23:36 28.64827 76.59464 31847 ft 451 kts 282°
2026-05-07 23:36 28.65847 76.52398 31847 ft 451 kts 281°
2026-05-07 23:37 28.66861 76.45343 31837 ft 450 kts 281°
2026-05-07 23:37 28.67875 76.38295 31843 ft 450 kts 281°
2026-05-07 23:38 28.68887 76.31259 31840 ft 450 kts 281°
2026-05-07 23:38 28.69897 76.24204 31839 ft 450 kts 281°
2026-05-07 23:39 28.70895 76.17208 31830 ft 450 kts 281°
2026-05-07 23:39 28.71895 76.10167 31832 ft 449 kts 281°
2026-05-07 23:40 28.72891 76.03130 31832 ft 449 kts 281°
2026-05-07 23:40 28.73861 75.96087 31830 ft 449 kts 279°
2026-05-07 23:41 28.74398 75.88970 31831 ft 451 kts 275°
2026-05-07 23:41 28.74346 75.81803 31831 ft 453 kts 270°
2026-05-07 23:42 28.73796 75.74669 31819 ft 453 kts 268°
2026-05-07 23:42 28.73177 75.67521 31824 ft 452 kts 268°
2026-05-07 23:43 28.72551 75.60375 31822 ft 452 kts 268°
2026-05-07 23:43 28.71919 75.53227 31822 ft 452 kts 268°
2026-05-07 23:44 28.71287 75.46132 31817 ft 452 kts 268°
2026-05-07 23:44 28.70645 75.38989 31809 ft 452 kts 268°
2026-05-07 23:45 28.70002 75.31858 31810 ft 451 kts 268°
2026-05-07 23:45 28.69356 75.24732 31812 ft 451 kts 268°
2026-05-07 23:46 28.68706 75.17603 31808 ft 451 kts 268°
2026-05-07 23:46 28.68057 75.10529 31809 ft 451 kts 268°
2026-05-07 23:47 28.67397 75.03393 31799 ft 450 kts 268°
2026-05-07 23:47 28.66738 74.96292 31806 ft 450 kts 268°
2026-05-07 23:48 28.66075 74.89189 31808 ft 450 kts 268°
2026-05-07 23:48 28.65412 74.82127 31808 ft 450 kts 268°
2026-05-07 23:49 28.64741 74.75021 31806 ft 450 kts 268°
2026-05-07 23:49 28.64066 74.67919 31806 ft 450 kts 268°
2026-05-07 23:50 28.63387 74.60825 31800 ft 450 kts 268°
2026-05-07 23:50 28.62705 74.53727 31800 ft 450 kts 268°
2026-05-07 23:51 28.62020 74.46630 31795 ft 450 kts 268°
2026-05-07 23:51 28.61330 74.39534 31794 ft 450 kts 268°
2026-05-07 23:52 28.60636 74.32439 31784 ft 450 kts 268°
2026-05-07 23:52 28.59945 74.25398 31792 ft 450 kts 268°
2026-05-07 23:53 28.59245 74.18305 31790 ft 450 kts 268°
2026-05-07 23:53 28.58541 74.11217 31790 ft 450 kts 268°
2026-05-07 23:54 28.57834 74.04135 31783 ft 450 kts 268°
2026-05-07 23:54 28.57124 73.97057 31775 ft 449 kts 268°
2026-05-07 23:55 28.56409 73.89989 31777 ft 449 kts 268°
2026-05-07 23:55 28.55690 73.82912 31783 ft 449 kts 268°
2026-05-07 23:56 28.55155 73.75882 31780 ft 448 kts 271°
2026-05-07 23:56 28.54856 73.68783 31774 ft 448 kts 271°
2026-05-07 23:57 28.54557 73.61692 31756 ft 448 kts 271°
2026-05-07 23:57 28.54253 73.54601 31763 ft 448 kts 271°
2026-05-07 23:58 28.53947 73.47524 31765 ft 447 kts 271°
2026-05-07 23:58 28.53637 73.40442 31765 ft 447 kts 271°
2026-05-07 23:59 28.53324 73.33389 31759 ft 447 kts 271°
2026-05-07 23:59 28.53007 73.26313 31749 ft 447 kts 271°
2026-05-08 00:00 28.52741 73.20440 31763 ft 446 kts 271°
2026-05-08 00:00 28.52417 73.13380 31759 ft 446 kts 271°
2026-05-08 00:01 28.52091 73.06321 31754 ft 446 kts 271°
2026-05-08 00:01 28.51762 72.99302 31754 ft 446 kts 271°
2026-05-08 00:02 28.51427 72.92199 31749 ft 446 kts 270°
2026-05-08 00:02 28.51091 72.85192 31753 ft 445 kts 270°
2026-05-08 00:03 28.50749 72.78143 31758 ft 445 kts 270°
2026-05-08 00:03 28.50404 72.71094 31755 ft 445 kts 270°
2026-05-08 00:04 28.50056 72.64052 31752 ft 445 kts 270°
2026-05-08 00:04 28.49703 72.57000 31738 ft 446 kts 270°
2026-05-08 00:05 28.49349 72.49994 31751 ft 446 kts 270°
2026-05-08 00:05 28.48987 72.42941 31754 ft 446 kts 270°
2026-05-08 00:06 28.48754 72.35900 31746 ft 443 kts 276°
2026-05-08 00:06 28.49789 72.29037 31750 ft 439 kts 289°
2026-05-08 00:07 28.52196 72.22720 31748 ft 438 kts 301°
2026-05-08 00:07 28.55861 72.17209 31748 ft 438 kts 313°
2026-05-08 00:08 28.60356 72.12497 31754 ft 439 kts 317°
2026-05-08 00:08 28.64932 72.07871 31751 ft 439 kts 317°
2026-05-08 00:09 28.69515 72.03251 31753 ft 440 kts 317°
2026-05-08 00:09 28.74096 71.98630 31755 ft 440 kts 317°
2026-05-08 00:10 28.78686 71.93997 31750 ft 440 kts 317°
2026-05-08 00:10 28.83268 71.89366 31745 ft 440 kts 317°
2026-05-08 00:11 28.87816 71.84764 31767 ft 439 kts 317°
2026-05-08 00:11 28.92390 71.80132 31753 ft 439 kts 317°
2026-05-08 00:12 28.96963 71.75496 31753 ft 439 kts 317°
2026-05-08 00:12 29.01530 71.70860 31755 ft 439 kts 317°
2026-05-08 00:13 29.06099 71.66215 31752 ft 439 kts 317°
2026-05-08 00:13 29.10663 71.61570 31794 ft 439 kts 317°
2026-05-08 00:14 29.15213 71.56929 31767 ft 437 kts 317°
2026-05-08 00:14 29.19754 71.52296 31755 ft 437 kts 317°
2026-05-08 00:15 29.24290 71.47663 31755 ft 437 kts 317°
2026-05-08 00:15 29.28830 71.43017 31758 ft 437 kts 317°
2026-05-08 00:16 29.33379 71.38396 31758 ft 437 kts 317°
2026-05-08 00:16 29.37931 71.33783 31769 ft 437 kts 317°
2026-05-08 00:17 29.42459 71.29189 31765 ft 437 kts 317°
2026-05-08 00:17 29.47011 71.24561 31764 ft 437 kts 317°
2026-05-08 00:18 29.51559 71.19930 31760 ft 437 kts 317°
2026-05-08 00:18 29.56103 71.15297 31764 ft 437 kts 317°
2026-05-08 00:19 29.60648 71.10656 31778 ft 437 kts 317°
2026-05-08 00:19 29.65198 71.06004 31772 ft 438 kts 317°
2026-05-08 00:20 29.69819 71.01440 31768 ft 438 kts 320°
2026-05-08 00:20 29.74547 70.97014 31766 ft 438 kts 320°
2026-05-08 00:21 29.79251 70.92613 31773 ft 438 kts 320°
2026-05-08 00:21 29.83980 70.88180 31769 ft 438 kts 320°
2026-05-08 00:22 29.88703 70.83747 31769 ft 437 kts 320°
2026-05-08 00:22 29.93419 70.79313 31769 ft 437 kts 320°
2026-05-08 00:23 29.98144 70.74867 31776 ft 437 kts 320°
2026-05-08 00:23 30.02858 70.70424 31773 ft 437 kts 320°
2026-05-08 00:24 30.07543 70.66002 31794 ft 438 kts 320°
2026-05-08 00:24 30.12271 70.61534 31786 ft 439 kts 320°
2026-05-08 00:25 30.17001 70.57058 31793 ft 439 kts 320°
2026-05-08 00:25 30.21730 70.52579 31778 ft 438 kts 320°
2026-05-08 00:26 30.26483 70.48166 31799 ft 437 kts 320°
2026-05-08 00:26 30.31246 70.43779 31824 ft 438 kts 321°
2026-05-08 00:27 30.35987 70.39403 31826 ft 438 kts 321°
2026-05-08 00:27 30.40755 70.34994 31827 ft 438 kts 320°
2026-05-08 00:28 30.45525 70.30574 31857 ft 438 kts 320°
2026-05-08 00:28 30.50292 70.26151 31855 ft 438 kts 320°
2026-05-08 00:29 30.55052 70.21727 31863 ft 439 kts 321°
2026-05-08 00:29 30.59784 70.17325 31874 ft 437 kts 320°
2026-05-08 00:30 30.64550 70.12885 31892 ft 437 kts 320°
2026-05-08 00:30 30.69294 70.08457 31890 ft 436 kts 320°
2026-05-08 00:31 30.74031 70.04029 31916 ft 437 kts 320°
2026-05-08 00:31 30.78774 69.99591 31915 ft 438 kts 320°
2026-05-08 00:32 30.83494 69.95172 31921 ft 438 kts 320°
2026-05-08 00:32 30.88239 69.90723 31940 ft 438 kts 320°
2026-05-08 00:33 30.92991 69.86261 31924 ft 438 kts 320°
2026-05-08 00:33 30.97727 69.81806 31942 ft 437 kts 321°
2026-05-08 00:34 31.02467 69.77342 31958 ft 439 kts 321°
2026-05-08 00:34 31.07224 69.72860 31949 ft 439 kts 321°
2026-05-08 00:35 31.11971 69.68380 31958 ft 438 kts 321°
2026-05-08 00:35 31.16715 69.63894 31964 ft 439 kts 321°
2026-05-08 00:36 31.21458 69.59404 31961 ft 439 kts 321°
2026-05-08 00:36 31.26212 69.54898 31960 ft 440 kts 321°
2026-05-08 00:37 31.30930 69.50395 31953 ft 439 kts 319°
2026-05-08 00:38 31.37498 69.42914 31960 ft 439 kts 312°
2026-05-08 00:38 31.41396 69.37407 31969 ft 439 kts 309°
2026-05-08 00:39 31.45180 69.31842 31970 ft 439 kts 309°
2026-05-08 00:39 31.48986 69.26224 31964 ft 440 kts 309°
2026-05-08 00:40 31.52790 69.20597 31973 ft 440 kts 309°
2026-05-08 00:40 31.56588 69.14964 31970 ft 439 kts 309°
2026-05-08 00:41 31.60379 69.09342 31983 ft 438 kts 309°
2026-05-08 00:41 31.64164 69.03714 31976 ft 438 kts 309°
2026-05-08 00:42 31.67972 68.98109 31986 ft 440 kts 310°
2026-05-08 00:42 31.71914 68.92616 31984 ft 439 kts 311°
2026-05-08 00:43 31.75835 68.87160 31986 ft 439 kts 311°
2026-05-08 00:43 31.79773 68.81655 31985 ft 439 kts 311°
2026-05-08 00:44 31.83705 68.76144 31994 ft 439 kts 311°
2026-05-08 00:44 31.87632 68.70628 32006 ft 439 kts 311°
2026-05-08 00:45 31.91560 68.65102 32008 ft 440 kts 311°
2026-05-08 00:45 31.95458 68.59606 32003 ft 439 kts 311°
2026-05-08 00:46 31.99375 68.54075 32011 ft 439 kts 311°
2026-05-08 00:46 32.03293 68.48536 32005 ft 439 kts 311°
2026-05-08 00:47 32.07210 68.42991 32017 ft 439 kts 311°
2026-05-08 00:47 32.11117 68.37452 32020 ft 439 kts 311°
2026-05-08 00:48 32.15003 68.31935 32029 ft 439 kts 311°
2026-05-08 00:48 32.18904 68.26389 32029 ft 439 kts 311°
2026-05-08 00:49 32.22811 68.20824 32027 ft 439 kts 311°
2026-05-08 00:49 32.26711 68.15260 32038 ft 439 kts 310°
2026-05-08 00:50 32.29956 68.10623 32020 ft 439 kts 310°
2026-05-08 00:50 32.34485 68.04143 32020 ft 440 kts 310°
2026-05-08 00:51 32.37748 67.99470 32038 ft 439 kts 310°
2026-05-08 00:51 32.41620 67.93914 32022 ft 439 kts 310°
2026-05-08 00:52 32.45513 67.88320 32022 ft 439 kts 310°
2026-05-08 00:52 32.49405 67.82720 32031 ft 439 kts 311°
2026-05-08 00:53 32.53422 67.77269 32029 ft 439 kts 313°
2026-05-08 00:53 32.57479 67.71852 32026 ft 438 kts 313°
2026-05-08 00:54 32.61532 67.66431 32021 ft 438 kts 313°
2026-05-08 00:54 32.65552 67.61044 32026 ft 438 kts 312°
2026-05-08 00:55 32.69593 67.55619 32042 ft 437 kts 312°
2026-05-08 00:55 32.73604 67.50228 32030 ft 433 kts 312°
2026-05-08 00:56 32.77587 67.44861 32044 ft 432 kts 312°
2026-05-08 00:56 32.81469 67.39374 32040 ft 432 kts 310°
2026-05-08 00:57 32.85313 67.33861 32060 ft 432 kts 310°
2026-05-08 00:57 32.89164 67.28339 32071 ft 433 kts 311°
2026-05-08 00:58 32.93000 67.22841 32099 ft 434 kts 310°
2026-05-08 00:58 32.96867 67.17296 32089 ft 435 kts 310°
2026-05-08 00:59 33.00734 67.11741 32116 ft 435 kts 310°
2026-05-08 00:59 33.04611 67.06161 32121 ft 436 kts 310°
2026-05-08 01:00 33.08487 67.00578 32139 ft 437 kts 310°
2026-05-08 01:00 33.12363 66.94982 32141 ft 437 kts 310°
2026-05-08 01:01 33.16217 66.89412 32155 ft 437 kts 310°
2026-05-08 01:01 33.20088 66.83809 32145 ft 437 kts 310°
2026-05-08 01:02 33.23956 66.78201 32149 ft 437 kts 310°
2026-05-08 01:02 33.27827 66.72580 32137 ft 437 kts 310°
2026-05-08 01:03 33.31697 66.66954 32134 ft 438 kts 310°
2026-05-08 01:03 33.35562 66.61323 32114 ft 437 kts 310°
2026-05-08 01:04 33.39429 66.55683 32112 ft 437 kts 310°
2026-05-08 01:04 33.43258 66.50086 32100 ft 436 kts 309°
2026-05-08 01:05 33.47100 66.44457 32108 ft 436 kts 309°
2026-05-08 01:05 33.50939 66.38811 32107 ft 436 kts 309°
2026-05-08 01:06 33.54773 66.33163 32114 ft 436 kts 309°
2026-05-08 01:06 33.58599 66.27514 32120 ft 436 kts 309°
2026-05-08 01:07 33.62425 66.21858 32123 ft 435 kts 309°
2026-05-08 01:07 33.66237 66.16208 32138 ft 435 kts 309°
2026-05-08 01:08 33.70042 66.10561 32133 ft 434 kts 309°
2026-05-08 01:08 33.73845 66.04909 32145 ft 434 kts 309°
2026-05-08 01:09 33.77621 65.99288 32131 ft 434 kts 309°
2026-05-08 01:09 33.81415 65.93631 32165 ft 434 kts 309°
2026-05-08 01:10 33.85211 65.87968 32158 ft 434 kts 309°
2026-05-08 01:10 33.89004 65.82294 32162 ft 434 kts 309°
2026-05-08 01:11 33.92789 65.76623 32154 ft 434 kts 309°
2026-05-08 01:11 33.96571 65.70943 32161 ft 434 kts 309°
2026-05-08 01:12 34.00349 65.65268 32160 ft 434 kts 309°
2026-05-08 01:12 34.04128 65.59580 32170 ft 434 kts 308°
2026-05-08 01:13 34.07909 65.53880 32178 ft 434 kts 308°
2026-05-08 01:13 34.11672 65.48219 32174 ft 434 kts 308°
2026-05-08 01:14 34.15455 65.42520 32178 ft 434 kts 308°
2026-05-08 01:14 34.19233 65.36815 32198 ft 434 kts 308°
2026-05-08 01:15 34.23010 65.31103 32198 ft 434 kts 308°
2026-05-08 01:15 34.26785 65.25387 32191 ft 435 kts 308°
2026-05-08 01:16 34.30559 65.19656 32194 ft 435 kts 308°
2026-05-08 01:16 34.34304 65.13961 32193 ft 435 kts 308°
2026-05-08 01:17 34.38073 65.08224 32196 ft 435 kts 308°
2026-05-08 01:17 34.41840 65.02477 32197 ft 435 kts 308°
2026-05-08 01:18 34.45604 64.96726 32179 ft 435 kts 308°
2026-05-08 01:18 34.49367 64.90966 32190 ft 435 kts 308°
2026-05-08 01:19 34.53128 64.85198 32199 ft 435 kts 308°
2026-05-08 01:19 34.56880 64.79431 32194 ft 435 kts 308°
2026-05-08 01:20 34.60609 64.73685 32186 ft 435 kts 308°
2026-05-08 01:20 34.64362 64.67893 32182 ft 435 kts 307°
2026-05-08 01:21 34.68112 64.62096 32181 ft 435 kts 307°
2026-05-08 01:21 34.71854 64.56302 32181 ft 435 kts 307°
2026-05-08 01:22 34.75594 64.50500 32168 ft 435 kts 307°
2026-05-08 01:22 34.79326 64.44701 32159 ft 435 kts 307°
2026-05-08 01:23 34.83059 64.38891 32153 ft 435 kts 307°
2026-05-08 01:23 34.86773 64.33103 32136 ft 436 kts 307°
2026-05-08 01:24 34.90514 64.27264 32147 ft 436 kts 307°
2026-05-08 01:24 34.94251 64.21418 32138 ft 436 kts 307°
2026-05-08 01:25 34.97975 64.15581 32138 ft 436 kts 307°
2026-05-08 01:25 35.01698 64.09739 32130 ft 436 kts 307°
2026-05-08 01:26 35.05404 64.03916 32116 ft 436 kts 307°
2026-05-08 01:26 35.09136 63.98040 32125 ft 437 kts 307°
2026-05-08 01:27 35.12867 63.92153 32133 ft 437 kts 307°
2026-05-08 01:27 35.16593 63.86266 32132 ft 437 kts 307°
2026-05-08 01:28 35.20318 63.80369 32134 ft 438 kts 307°
2026-05-08 01:28 35.24043 63.74464 32132 ft 438 kts 307°
2026-05-08 01:29 35.27742 63.68587 32127 ft 438 kts 306°
2026-05-08 01:29 35.31470 63.62667 32121 ft 438 kts 307°
2026-05-08 01:30 35.35210 63.56755 32113 ft 438 kts 307°
2026-05-08 01:30 35.38944 63.50838 32124 ft 438 kts 307°
2026-05-08 01:31 35.42647 63.44958 32114 ft 438 kts 306°
2026-05-08 01:31 35.46373 63.39029 32107 ft 438 kts 306°
2026-05-08 01:32 35.50096 63.33091 32101 ft 439 kts 306°
2026-05-08 01:32 35.53816 63.27147 32100 ft 438 kts 306°
2026-05-08 01:33 35.57533 63.21200 32094 ft 438 kts 306°
2026-05-08 01:33 35.61235 63.15219 32093 ft 439 kts 306°
2026-05-08 01:34 35.64911 63.09230 32095 ft 438 kts 306°
2026-05-08 01:34 35.68558 63.03275 32089 ft 438 kts 306°
2026-05-08 01:35 35.72221 62.97283 32087 ft 437 kts 306°
2026-05-08 01:35 35.75887 62.91275 32088 ft 438 kts 306°
2026-05-08 01:36 35.79549 62.85267 32087 ft 438 kts 306°
2026-05-08 01:36 35.83204 62.79263 32084 ft 436 kts 305°
2026-05-08 01:37 35.86821 62.73308 32101 ft 435 kts 305°
2026-05-08 01:37 35.90447 62.67323 32085 ft 434 kts 305°
2026-05-08 01:38 35.94067 62.61341 32080 ft 434 kts 305°
2026-05-08 01:38 35.97074 62.56366 32084 ft 434 kts 305°
2026-05-08 01:39 36.00685 62.50383 32083 ft 433 kts 305°
2026-05-08 01:39 36.04866 62.43438 32085 ft 432 kts 305°
2026-05-08 01:40 36.07872 62.38437 32082 ft 432 kts 304°
2026-05-08 01:40 36.11437 62.32495 32082 ft 432 kts 304°
2026-05-08 01:41 36.15021 62.26513 32083 ft 432 kts 304°
2026-05-08 01:41 36.18602 62.20529 32084 ft 432 kts 304°
2026-05-08 01:42 36.22176 62.14538 32078 ft 432 kts 304°
2026-05-08 01:42 36.25753 62.08531 32078 ft 432 kts 304°
2026-05-08 01:43 36.29304 62.02560 32082 ft 432 kts 304°
2026-05-08 01:43 36.32873 61.96550 32075 ft 432 kts 304°
2026-05-08 01:44 36.36436 61.90544 32076 ft 431 kts 304°
2026-05-08 01:44 36.39995 61.84530 32074 ft 431 kts 304°
2026-05-08 01:45 36.43549 61.78509 32071 ft 431 kts 303°
2026-05-08 01:45 36.47097 61.72493 32076 ft 431 kts 303°
2026-05-08 01:46 36.50639 61.66474 32078 ft 430 kts 303°
2026-05-08 01:46 36.54148 61.60501 32073 ft 429 kts 303°
2026-05-08 01:47 36.57673 61.54489 32069 ft 429 kts 303°
2026-05-08 01:47 36.61193 61.48474 32064 ft 429 kts 303°
2026-05-08 01:48 36.66412 61.39407 32076 ft 427 kts 303°
2026-05-08 01:48 36.69853 61.33352 32075 ft 427 kts 303°
2026-05-08 01:49 36.73296 61.27292 32067 ft 427 kts 302°
2026-05-08 01:49 36.76735 61.21222 32071 ft 428 kts 302°
2026-05-08 01:50 36.80143 61.15199 32075 ft 426 kts 302°
2026-05-08 01:50 36.83555 61.09160 32074 ft 425 kts 302°
2026-05-08 01:51 36.86965 61.03114 32076 ft 425 kts 302°
2026-05-08 01:51 36.90373 60.97062 32073 ft 425 kts 301°
2026-05-08 01:52 36.93774 60.90998 32092 ft 424 kts 302°
2026-05-08 01:52 36.97168 60.84971 32072 ft 423 kts 303°
2026-05-08 01:53 37.00743 60.79171 32074 ft 423 kts 304°
2026-05-08 01:53 37.04383 60.73359 32076 ft 424 kts 304°
2026-05-08 01:54 37.08022 60.67533 32091 ft 424 kts 303°
2026-05-08 01:54 37.11648 60.61713 32073 ft 422 kts 303°
2026-05-08 01:55 37.15263 60.55902 32073 ft 422 kts 303°
2026-05-08 01:55 37.18876 60.50084 32078 ft 422 kts 303°
2026-05-08 01:56 37.22467 60.44298 32074 ft 422 kts 303°
2026-05-08 01:56 37.26081 60.38461 32069 ft 423 kts 303°
2026-05-08 01:57 37.29690 60.32616 32072 ft 423 kts 303°
2026-05-08 01:57 37.33300 60.26764 32079 ft 423 kts 303°
2026-05-08 01:58 37.36905 60.20910 32086 ft 423 kts 303°
2026-05-08 01:58 37.40504 60.15059 32078 ft 423 kts 303°
2026-05-08 01:59 37.44084 60.09225 32077 ft 423 kts 302°
2026-05-08 01:59 37.47684 60.03345 32078 ft 423 kts 302°
2026-05-08 02:00 37.51280 59.97462 32098 ft 423 kts 302°
2026-05-08 02:00 37.54870 59.91581 32084 ft 422 kts 302°
2026-05-08 02:01 37.58456 59.85699 32080 ft 424 kts 302°
2026-05-08 02:01 37.62048 59.79791 32077 ft 424 kts 302°
2026-05-08 02:02 37.65644 59.73866 32087 ft 424 kts 302°
2026-05-08 02:02 37.69239 59.67936 32080 ft 425 kts 302°
2026-05-08 02:03 37.72830 59.61998 32077 ft 425 kts 302°
2026-05-08 02:03 37.76424 59.56047 32079 ft 426 kts 302°
2026-05-08 02:04 37.80026 59.50070 32084 ft 426 kts 301°
2026-05-08 02:04 37.83599 59.44130 32073 ft 425 kts 301°
2026-05-08 02:05 37.87180 59.38163 32074 ft 425 kts 301°
2026-05-08 02:05 37.90521 59.31995 32074 ft 422 kts 297°
2026-05-08 02:06 37.93611 59.25650 32084 ft 423 kts 296°
2026-05-08 02:06 37.96681 59.19302 32080 ft 421 kts 296°
2026-05-08 02:07 37.99721 59.12992 32080 ft 421 kts 296°
2026-05-08 02:07 38.02775 59.06642 32080 ft 421 kts 296°
2026-05-08 02:08 38.05830 59.00282 32085 ft 423 kts 295°
2026-05-08 02:08 38.08886 58.93911 32079 ft 421 kts 295°
2026-05-08 02:09 38.11929 58.87539 32075 ft 421 kts 295°
2026-05-08 02:09 38.14974 58.81156 32077 ft 421 kts 295°
2026-05-08 02:10 38.18014 58.74771 32078 ft 421 kts 295°
2026-05-08 02:10 38.21042 58.68408 32083 ft 419 kts 294°
2026-05-08 02:11 38.24057 58.62049 32077 ft 419 kts 294°
2026-05-08 02:11 38.27044 58.55737 32077 ft 419 kts 294°
2026-05-08 02:12 38.30049 58.49375 32075 ft 419 kts 294°
2026-05-08 02:12 38.33057 58.43003 32083 ft 419 kts 294°
2026-05-08 02:13 38.36056 58.36623 32078 ft 418 kts 294°
2026-05-08 02:13 38.39006 58.30263 32078 ft 417 kts 292°
2026-05-08 02:14 38.41591 58.23671 32077 ft 414 kts 288°
2026-05-08 02:14 38.43983 58.16976 32090 ft 413 kts 288°
2026-05-08 02:15 38.46352 58.10290 32084 ft 413 kts 288°
2026-05-08 02:15 38.48713 58.03599 32083 ft 413 kts 288°
2026-05-08 02:16 38.51056 57.96945 32083 ft 413 kts 288°
2026-05-08 02:16 38.53413 57.90240 32086 ft 413 kts 288°
2026-05-08 02:17 38.55763 57.83532 32086 ft 413 kts 287°
2026-05-08 02:17 38.58108 57.76821 32088 ft 413 kts 287°
2026-05-08 02:18 38.60465 57.70111 32088 ft 414 kts 289°
2026-05-08 02:18 38.63166 57.63556 32092 ft 418 kts 292°
2026-05-08 02:19 38.66188 57.57197 32098 ft 419 kts 293°
2026-05-08 02:19 38.69239 57.50818 32092 ft 419 kts 293°
2026-05-08 02:20 38.72293 57.44434 32092 ft 419 kts 293°
2026-05-08 02:20 38.75345 57.38048 32099 ft 419 kts 293°
2026-05-08 02:21 38.78398 57.31659 32103 ft 420 kts 293°
2026-05-08 02:21 38.81444 57.25262 32098 ft 420 kts 293°
2026-05-08 02:22 38.84467 57.18901 32103 ft 420 kts 293°
2026-05-08 02:22 38.87506 57.12494 32101 ft 420 kts 292°
2026-05-08 02:23 38.90548 57.06080 32100 ft 419 kts 292°
2026-05-08 02:23 38.93574 56.99673 32102 ft 419 kts 292°
2026-05-08 02:24 38.96579 56.93299 32104 ft 419 kts 292°
2026-05-08 02:24 38.99600 56.86881 32123 ft 419 kts 292°
2026-05-08 02:25 39.02619 56.80460 32110 ft 419 kts 291°
2026-05-08 02:25 39.05632 56.74028 32106 ft 419 kts 291°
2026-05-08 02:26 39.08645 56.67588 32107 ft 419 kts 291°
2026-05-08 02:26 39.11630 56.61195 32125 ft 419 kts 291°
2026-05-08 02:27 39.14634 56.54753 32114 ft 419 kts 291°
2026-05-08 02:27 39.17147 56.49348 32112 ft 419 kts 291°
2026-05-08 02:28 39.20127 56.42926 32111 ft 419 kts 291°
2026-05-08 02:28 39.23125 56.36455 32127 ft 419 kts 291°
2026-05-08 02:29 39.26117 56.29983 32116 ft 419 kts 291°
2026-05-08 02:29 39.29109 56.23498 32114 ft 420 kts 291°
2026-05-08 02:30 39.32100 56.17001 32115 ft 420 kts 291°
2026-05-08 02:30 39.35070 56.10535 32109 ft 421 kts 291°
2026-05-08 02:31 39.38059 56.04017 32114 ft 421 kts 291°
2026-05-08 02:31 39.41048 55.97486 32116 ft 421 kts 290°
2026-05-08 02:32 39.44031 55.90954 32112 ft 421 kts 290°
2026-05-08 02:32 39.47009 55.84413 32123 ft 421 kts 291°
2026-05-08 02:33 39.50003 55.77862 32122 ft 422 kts 291°
2026-05-08 02:33 39.53029 55.71364 32119 ft 423 kts 291°
2026-05-08 02:34 39.56077 55.64805 32141 ft 424 kts 291°
2026-05-08 02:34 39.59123 55.58228 32129 ft 425 kts 291°
2026-05-08 02:35 39.62164 55.51645 32126 ft 425 kts 291°
2026-05-08 02:35 39.65179 55.45101 32124 ft 424 kts 290°
2026-05-08 02:36 39.67931 55.38377 32125 ft 418 kts 286°
2026-05-08 02:36 39.70174 55.31440 32126 ft 413 kts 281°
2026-05-08 02:37 39.71918 55.24365 32128 ft 409 kts 278°
2026-05-08 02:37 39.73487 55.17245 32131 ft 409 kts 277°
2026-05-08 02:38 39.75043 55.10106 32145 ft 411 kts 277°
2026-05-08 02:38 39.76592 55.02940 32134 ft 412 kts 277°
2026-05-08 02:39 39.78138 54.95762 32136 ft 412 kts 277°
2026-05-08 02:39 39.79670 54.88627 32135 ft 411 kts 277°
2026-05-08 02:40 39.81206 54.81445 32138 ft 411 kts 277°
2026-05-08 02:40 39.82740 54.74255 32144 ft 413 kts 277°
2026-05-08 02:41 39.84285 54.67031 32141 ft 414 kts 277°
2026-05-08 02:41 39.85828 54.59801 32141 ft 414 kts 277°
2026-05-08 02:42 39.87364 54.52556 32141 ft 414 kts 277°
2026-05-08 02:42 39.88778 54.45285 32138 ft 411 kts 274°
2026-05-08 02:43 39.89728 54.37940 32141 ft 410 kts 271°
2026-05-08 02:43 39.90551 54.30560 32130 ft 411 kts 271°
2026-05-08 02:44 39.91364 54.23185 32139 ft 411 kts 270°
2026-05-08 02:44 39.92169 54.15805 32132 ft 411 kts 270°
2026-05-08 02:45 39.92965 54.08454 32140 ft 411 kts 270°
2026-05-08 02:45 39.93758 54.01061 32151 ft 412 kts 270°
2026-05-08 02:46 39.94549 53.93627 32139 ft 414 kts 270°
2026-05-08 02:46 39.95341 53.86173 32136 ft 414 kts 270°
2026-05-08 02:47 39.96128 53.78717 32136 ft 414 kts 270°
2026-05-08 02:47 39.96903 53.71315 32134 ft 414 kts 270°
2026-05-08 02:48 39.97678 53.63861 32142 ft 415 kts 270°
2026-05-08 02:48 39.98449 53.56355 32154 ft 419 kts 271°
2026-05-08 02:49 39.99229 53.48777 32138 ft 421 kts 271°
2026-05-08 02:49 40.00000 53.41247 32145 ft 421 kts 271°
2026-05-08 02:50 40.00771 53.33661 32135 ft 421 kts 271°
2026-05-08 02:50 40.01536 53.26065 32138 ft 421 kts 271°
2026-05-08 02:51 40.02295 53.18478 32174 ft 421 kts 271°
2026-05-08 02:51 40.03046 53.10863 32140 ft 424 kts 271°
2026-05-08 02:52 40.03810 53.03230 32141 ft 425 kts 272°
2026-05-08 02:52 40.04898 52.95597 32144 ft 428 kts 275°
2026-05-08 02:53 40.06104 52.87977 32139 ft 428 kts 275°
2026-05-08 02:53 40.07309 52.80353 32142 ft 428 kts 275°
2026-05-08 02:54 40.08502 52.72760 32150 ft 430 kts 276°
2026-05-08 02:54 40.09709 52.65081 32149 ft 431 kts 276°
2026-05-08 02:55 40.11512 52.53528 32146 ft 431 kts 275°
2026-05-08 02:56 40.12705 52.45833 32147 ft 431 kts 275°
2026-05-08 02:56 40.13892 52.38132 32155 ft 432 kts 275°
2026-05-08 02:57 40.15075 52.30423 32144 ft 432 kts 275°
2026-05-08 02:57 40.16246 52.22760 32147 ft 432 kts 275°
2026-05-08 02:58 40.17421 52.15035 32153 ft 432 kts 275°
2026-05-08 02:58 40.18591 52.07310 32150 ft 432 kts 275°
2026-05-08 02:59 40.19754 51.99592 32158 ft 432 kts 275°
2026-05-08 02:59 40.20911 51.91866 32150 ft 432 kts 275°
2026-05-08 03:00 40.22064 51.84134 32148 ft 432 kts 275°
2026-05-08 03:00 40.23211 51.76405 32150 ft 432 kts 275°
2026-05-08 03:01 40.24353 51.68670 32150 ft 432 kts 275°
2026-05-08 03:01 40.25482 51.60983 32152 ft 432 kts 275°
2026-05-08 03:02 40.26612 51.53252 32148 ft 432 kts 275°
2026-05-08 03:02 40.27742 51.45503 32148 ft 432 kts 275°
2026-05-08 03:03 40.28868 51.37756 32145 ft 432 kts 275°
2026-05-08 03:03 40.29987 51.30007 32145 ft 432 kts 274°
2026-05-08 03:04 40.31092 51.22318 32153 ft 431 kts 274°
2026-05-08 03:04 40.32196 51.14586 32148 ft 431 kts 274°
2026-05-08 03:05 40.33295 51.06850 32153 ft 431 kts 274°
2026-05-08 03:05 40.34388 50.99116 32151 ft 431 kts 274°
2026-05-08 03:06 40.35477 50.91375 32138 ft 431 kts 274°
2026-05-08 03:06 40.36562 50.83634 32151 ft 430 kts 274°
2026-05-08 03:07 40.37632 50.75948 32141 ft 430 kts 274°
2026-05-08 03:07 40.38703 50.68211 32140 ft 430 kts 274°
2026-05-08 03:08 40.39770 50.60475 32135 ft 430 kts 274°
2026-05-08 03:08 40.40830 50.52739 32145 ft 430 kts 274°
2026-05-08 03:09 40.41888 50.45010 32127 ft 429 kts 273°
2026-05-08 03:09 40.42934 50.37281 32121 ft 429 kts 273°
2026-05-08 03:10 40.43977 50.29544 32117 ft 429 kts 273°
2026-05-08 03:10 40.45011 50.21839 32115 ft 429 kts 273°
2026-05-08 03:11 40.46043 50.14098 32119 ft 429 kts 273°
2026-05-08 03:11 40.47039 50.06365 32120 ft 427 kts 271°
2026-05-08 03:12 40.47633 49.98614 32119 ft 425 kts 268°
2026-05-08 03:12 40.48111 49.90863 32117 ft 425 kts 268°
2026-05-08 03:13 40.48580 49.83106 32120 ft 425 kts 268°
2026-05-08 03:13 40.49041 49.75387 32121 ft 425 kts 268°
2026-05-08 03:14 40.49498 49.67642 32137 ft 425 kts 268°
2026-05-08 03:14 40.49874 49.61183 32124 ft 425 kts 268°
2026-05-08 03:15 40.50320 49.53421 32127 ft 425 kts 268°
2026-05-08 03:15 40.50762 49.45665 32135 ft 425 kts 267°
2026-05-08 03:16 40.51197 49.37903 32136 ft 425 kts 267°
2026-05-08 03:16 40.51628 49.30205 32141 ft 424 kts 267°
2026-05-08 03:17 40.52060 49.22428 32157 ft 425 kts 267°
2026-05-08 03:17 40.52483 49.14655 32153 ft 425 kts 267°
2026-05-08 03:18 40.52898 49.06935 32154 ft 425 kts 267°
2026-05-08 03:18 40.53311 48.99169 32167 ft 425 kts 267°
2026-05-08 03:19 40.53717 48.91397 32161 ft 426 kts 267°
2026-05-08 03:19 40.54119 48.83623 32161 ft 426 kts 267°
2026-05-08 03:20 40.54516 48.75832 32168 ft 426 kts 267°
2026-05-08 03:20 40.54909 48.68037 32167 ft 427 kts 267°
2026-05-08 03:21 40.55296 48.60226 32173 ft 427 kts 267°
2026-05-08 03:21 40.55680 48.52419 32168 ft 427 kts 266°
2026-05-08 03:22 40.56054 48.44659 32167 ft 427 kts 266°
2026-05-08 03:22 40.56426 48.36846 32192 ft 427 kts 266°
2026-05-08 03:23 40.56793 48.29007 32169 ft 428 kts 266°
2026-05-08 03:23 40.57156 48.21171 32167 ft 428 kts 266°
2026-05-08 03:24 40.57512 48.13337 32170 ft 428 kts 266°
2026-05-08 03:24 40.57861 48.05495 32178 ft 429 kts 266°
2026-05-08 03:25 40.58206 47.97689 32174 ft 429 kts 266°
2026-05-08 03:25 40.58511 47.89840 32187 ft 430 kts 266°
2026-05-08 03:26 40.58766 47.81959 32177 ft 430 kts 266°
2026-05-08 03:26 40.59018 47.74072 32165 ft 430 kts 266°
2026-05-08 03:27 40.59266 47.66192 32164 ft 430 kts 266°
2026-05-08 03:27 40.59508 47.58305 32182 ft 432 kts 266°
2026-05-08 03:28 40.59747 47.50369 32181 ft 433 kts 266°
2026-05-08 03:28 40.59981 47.42488 32169 ft 433 kts 266°
2026-05-08 03:29 40.60209 47.34558 32175 ft 433 kts 266°
2026-05-08 03:29 40.60431 47.26615 32163 ft 433 kts 266°
2026-05-08 03:30 40.61050 47.14698 32159 ft 437 kts 271°
2026-05-08 03:31 40.62674 46.98743 32172 ft 442 kts 272°
2026-05-08 03:32 40.63900 46.86716 32167 ft 443 kts 272°
2026-05-08 03:32 40.64713 46.78649 32168 ft 443 kts 272°
2026-05-08 03:33 40.65519 46.70591 32172 ft 443 kts 272°
2026-05-08 03:33 40.66315 46.62531 32187 ft 444 kts 272°
2026-05-08 03:34 40.67117 46.54423 32180 ft 447 kts 272°
2026-05-08 03:34 40.67913 46.46344 32172 ft 447 kts 272°
2026-05-08 03:35 40.68708 46.38203 32172 ft 447 kts 272°
2026-05-08 03:35 40.69492 46.30070 32169 ft 447 kts 272°
2026-05-08 03:36 40.70267 46.21922 32180 ft 448 kts 273°
2026-05-08 03:36 40.71043 46.13737 32172 ft 450 kts 273°
2026-05-08 03:37 40.71818 46.05538 32161 ft 450 kts 273°
2026-05-08 03:37 40.72585 45.97333 32164 ft 449 kts 273°
2026-05-08 03:38 40.73346 45.89116 32180 ft 450 kts 273°
2026-05-08 03:38 40.74096 45.80898 32183 ft 452 kts 273°
2026-05-08 03:39 40.74845 45.72698 32181 ft 453 kts 273°
2026-05-08 03:39 40.75593 45.64432 32183 ft 453 kts 273°
2026-05-08 03:40 40.76332 45.56169 32186 ft 453 kts 273°
2026-05-08 03:40 40.76970 45.47894 32192 ft 452 kts 270°
2026-05-08 03:41 40.77361 45.39575 32194 ft 456 kts 271°
2026-05-08 03:41 40.77750 45.31209 32193 ft 456 kts 271°
2026-05-08 03:42 40.78131 45.22841 32193 ft 456 kts 271°
2026-05-08 03:42 40.78504 45.14456 32194 ft 456 kts 271°
2026-05-08 03:43 40.78626 45.11685 32196 ft 456 kts 271°